Total_Precipitation_Accumulation
0.63 0.67 0.71 0.73 0.75 0.80 0.82 0.79 0.73 0.67 0.61 0.59 0.60 0.58 0.54 0.54 0.54 0.56 0.59 0.68 0.80 0.87 0.79 0.71 0.66 0.63 0.62 0.53 0.49 0.47 0.45 0.48 0.54 0.56 0.63 0.75 0.79 0.71 0.70 0.64 0.58 0.60 0.52
0.55 0.66 0.68 0.74 0.80 0.78 0.76 0.87 0.88 0.85 0.80 0.76 0.71 0.70 0.63 0.55 0.56 0.55 0.55 0.59 0.72 0.89 1.03 1.05 0.92 0.81 0.77 0.66 0.61 0.58 0.54 0.58 0.63 0.74 0.80 0.87 0.88 0.86 0.80 0.63 0.51 0.49 0.52
0.48 0.60 0.67 0.74 0.82 0.86 0.87 0.91 1.01 1.01 0.98 0.95 0.90 0.86 0.80 0.74 0.70 0.69 0.64 0.61 0.64 0.72 0.86 1.02 1.07 1.03 0.89 0.81 0.74 0.67 0.63 0.61 0.67 0.71 0.79 0.93 1.00 1.00 0.83 0.58 0.47 0.50 0.45
0.60 0.71 0.76 0.86 0.97 1.02 0.97 1.00 1.04 1.10 1.12 1.13 1.11 1.01 0.92 0.87 0.83 0.83 0.80 0.76 0.75 0.73 0.72 0.75 0.88 1.04 1.00 0.91 0.83 0.79 0.75 0.76 0.77 0.76 0.79 0.93 1.10 1.15 0.94 0.65 0.54 0.52 0.48
0.89 0.94 0.95 0.97 1.03 1.10 1.15 1.18 1.24 1.32 1.33 1.38 1.32 1.21 1.13 1.07 0.97 1.01 1.08 1.05 1.03 0.90 0.78 0.71 0.69 0.80 0.90 0.91 0.81 0.78 0.80 0.82 0.82 0.79 0.81 0.96 1.11 1.20 0.97 0.73 0.58 0.52 0.48
1.28 1.34 1.40 1.41 1.41 1.44 1.45 1.46 1.52 1.53 1.54 1.48 1.41 1.39 1.33 1.19 1.25 1.21 1.11 1.09 1.15 1.12 0.98 0.86 0.73 0.66 0.68 0.73 0.78 0.78 0.78 0.79 0.81 0.81 0.82 0.93 1.04 1.08 1.10 0.92 0.71 0.52 0.43
1.31 1.31 1.35 1.43 1.48 1.50 1.52 1.54 1.51 1.51 1.48 1.41 1.43 1.45 1.42 1.39 1.26 1.04 0.89 0.88 0.93 0.98 0.99 0.93 0.72 0.59 0.62 0.63 0.72 0.72 0.69 0.64 0.64 0.71 0.75 0.84 1.09 1.23 1.33 1.07 0.86 0.73 0.58
1.18 1.18 1.18 1.20 1.21 1.24 1.33 1.37 1.37 1.38 1.35 1.30 1.26 1.17 1.13 1.07 0.98 0.85 0.79 0.79 0.81 0.79 0.86 0.90 0.83 0.72 0.65 0.65 0.63 0.59 0.57 0.55 0.50 0.49 0.55 0.71 0.95 1.29 1.47 1.44 1.32 1.11 0.93
0.95 0.98 0.95 0.99 1.02 1.08 1.15 1.24 1.32 1.31 1.19 1.07 0.99 0.97 0.97 0.98 1.00 0.84 0.77 0.80 0.84 0.77 0.75 0.75 0.75 0.67 0.59 0.50 0.51 0.47 0.44 0.44 0.40 0.41 0.44 0.60 0.78 1.03 1.37 1.53 1.45 1.23 1.00
0.89 0.96 0.97 0.96 0.98 1.00 1.06 1.12 1.15 1.15 1.10 1.04 0.97 0.94 0.93 0.95 0.98 0.80 0.74 0.77 0.81 0.77 0.77 0.79 0.82 0.71 0.56 0.41 0.44 0.49 0.43 0.37 0.39 0.39 0.41 0.46 0.58 0.75 1.05 1.22 1.18 1.11 0.93
0.78 0.85 0.88 0.87 0.87 0.88 0.92 0.95 1.02 1.06 1.04 0.98 0.90 0.88 0.90 0.89 0.84 0.66 0.56 0.59 0.65 0.67 0.64 0.65 0.73 0.67 0.51 0.37 0.38 0.43 0.39 0.38 0.44 0.43 0.44 0.49 0.59 0.72 0.84 1.05 1.10 0.99 0.86
0.78 0.81 0.81 0.81 0.79 0.78 0.78 0.80 0.84 0.88 0.86 0.84 0.83 0.84 0.90 0.87 0.71 0.57 0.45 0.44 0.50 0.55 0.64 0.65 0.72 0.71 0.56 0.45 0.39 0.37 0.31 0.28 0.34 0.40 0.40 0.41 0.48 0.58 0.74 0.94 1.10 1.07 0.93
0.77 0.81 0.79 0.79 0.80 0.82 0.83 0.85 0.87 0.87 0.86 0.84 0.79 0.71 0.70 0.73 0.71 0.53 0.40 0.34 0.39 0.49 0.69 0.86 0.88 0.83 0.70 0.58 0.51 0.48 0.38 0.32 0.35 0.38 0.39 0.37 0.40 0.51 0.74 0.99 1.17 1.28 1.18
0.78 0.73 0.69 0.70 0.71 0.75 0.84 0.90 0.91 0.91 0.87 0.82 0.77 0.73 0.72 0.74 0.74 0.67 0.56 0.45 0.44 0.50 0.69 0.88 0.99 1.03 0.97 0.85 0.75 0.67 0.52 0.45 0.45 0.45 0.46 0.49 0.54 0.65 0.80 0.90 1.03 1.17 1.20
0.73 0.71 0.67 0.64 0.65 0.69 0.73 0.77 0.74 0.76 0.75 0.71 0.67 0.68 0.69 0.71 0.68 0.60 0.52 0.47 0.45 0.48 0.62 0.89 1.09 1.22 1.24 1.20 1.07 0.96 0.82 0.70 0.61 0.60 0.62 0.62 0.64 0.70 0.76 0.88 1.01 1.06 1.03
0.74 0.69 0.65 0.63 0.63 0.63 0.64 0.68 0.72 0.65 0.64 0.59 0.58 0.54 0.50 0.52 0.51 0.43 0.37 0.36 0.37 0.42 0.58 0.84 1.07 1.24 1.30 1.38 1.37 1.26 1.08 0.92 0.82 0.79 0.76 0.74 0.74 0.72 0.76 0.90 1.04 1.09 0.99
0.73 0.70 0.64 0.60 0.59 0.58 0.58 0.60 0.66 0.66 0.58 0.54 0.57 0.50 0.39 0.37 0.34 0.32 0.30 0.29 0.29 0.34 0.52 0.70 0.80 0.94 1.10 1.28 1.36 1.34 1.18 1.04 1.05 1.03 0.93 0.87 0.88 0.85 0.82 0.89 1.02 1.09 1.08
0.60 0.62 0.58 0.55 0.57 0.56 0.55 0.57 0.61 0.67 0.71 0.64 0.58 0.54 0.36 0.27 0.23 0.22 0.23 0.24 0.24 0.28 0.43 0.52 0.59 0.70 0.88 1.12 1.27 1.33 1.26 1.14 1.13 1.15 1.11 1.04 1.02 0.96 0.89 0.86 0.96 1.06 1.08
0.51 0.49 0.46 0.47 0.49 0.50 0.51 0.51 0.53 0.56 0.61 0.60 0.54 0.51 0.39 0.27 0.22 0.22 0.29 0.36 0.34 0.33 0.41 0.46 0.50 0.60 0.75 0.95 1.15 1.30 1.33 1.26 1.20 1.25 1.25 1.15 1.10 1.05 0.94 0.86 0.91 1.01 1.10
0.46 0.50 0.42 0.38 0.38 0.42 0.46 0.48 0.48 0.52 0.55 0.56 0.53 0.52 0.45 0.34 0.33 0.38 0.48 0.56 0.52 0.50 0.53 0.54 0.58 0.67 0.80 1.03 1.22 1.31 1.34 1.31 1.27 1.30 1.28 1.20 1.14 1.11 1.01 0.96 0.96 1.01 1.03
0.47 0.43 0.44 0.37 0.36 0.40 0.43 0.47 0.48 0.53 0.59 0.58 0.51 0.43 0.35 0.36 0.44 0.54 0.65 0.69 0.64 0.61 0.59 0.58 0.59 0.66 0.82 1.02 1.17 1.30 1.33 1.34 1.33 1.29 1.26 1.19 1.14 1.12 1.10 1.06 1.01 1.02 1.06
0.47 0.43 0.42 0.42 0.43 0.43 0.41 0.45 0.48 0.48 0.49 0.51 0.52 0.46 0.40 0.43 0.56 0.65 0.72 0.77 0.75 0.73 0.68 0.65 0.62 0.68 0.78 0.92 1.07 1.19 1.21 1.22 1.24 1.25 1.21 1.16 1.13 1.12 1.15 1.15 1.11 1.09 1.11
0.39 0.39 0.39 0.43 0.45 0.45 0.45 0.47 0.48 0.48 0.52 0.57 0.59 0.59 0.62 0.66 0.70 0.77 0.82 0.83 0.78 0.74 0.69 0.65 0.65 0.68 0.74 0.81 0.91 1.01 1.07 1.09 1.12 1.15 1.20 1.17 1.14 1.13 1.14 1.14 1.12 1.12 1.10
0.34 0.34 0.33 0.35 0.39 0.42 0.44 0.46 0.46 0.45 0.49 0.56 0.62 0.68 0.71 0.74 0.77 0.81 0.79 0.77 0.72 0.69 0.70 0.69 0.69 0.70 0.73 0.80 0.85 0.84 0.86 0.88 0.90 0.94 1.00 1.04 1.05 1.05 1.08 1.08 1.10 1.13 1.16
0.32 0.36 0.35 0.35 0.33 0.35 0.38 0.39 0.39 0.41 0.48 0.59 0.66 0.70 0.73 0.75 0.78 0.74 0.68 0.63 0.59 0.60 0.63 0.63 0.64 0.59 0.57 0.59 0.62 0.64 0.70 0.69 0.71 0.76 0.78 0.81 0.84 0.90 0.96 0.99 1.04 1.13 1.22
0.25 0.34 0.36 0.36 0.31 0.30 0.33 0.36 0.36 0.39 0.45 0.49 0.56 0.59 0.61 0.64 0.69 0.69 0.66 0.64 0.61 0.59 0.59 0.60 0.57 0.50 0.49 0.49 0.46 0.46 0.43 0.42 0.49 0.58 0.63 0.68 0.75 0.84 0.91 0.94 0.98 1.07 1.14